Change the Weather History Date:

Friday, January 17, 2014

  Actual Average (KHAI) Record (KHAI)
Temperature  
Mean Temperature 16 °F -  
Max Temperature 26 °F 31 °F 64 °F (1952)
Min Temperature 6 °F 15 °F -17 °F (1982)
Degree Days  
Heating Degree Days 49    
Moisture  
Dew Point 14 °F    
Average Humidity 84    
Maximum Humidity 93    
Minimum Humidity 74    
Precipitation  
Precipitation 0.00 in - - ()
Sea Level Pressure  
Sea Level Pressure 29.79 in    
Wind  
Wind Speed 8 mph (WSW)    
Max Wind Speed 14 mph    
Max Gust Speed 20 mph    
Visibility 8 miles    
Events Snow    
Averages and records for this station are not official NWS values.
T = Trace of Precipitation, MM = Missing Value Source: NWS Daily Summary

Daily Weather History Graph

Daily Weather History Graph

Search for Another Location

Airport or City:

Trip Planner

Search our weather history database for the weather conditions in past years. The results will help you decide how hot, cold, wet, or windy it might be!

Date:

Astronomy

Jan. 17, 2014 Rise Set
Actual Time 8:05 AM EST 5:38 PM EST
Civil Twilight 7:35 AM EST 6:08 PM EST
Nautical Twilight 7:00 AM EST 6:43 PM EST
Astronomical Twilight 6:27 AM EST 7:16 PM EST
Moon 7:26 PM EST (1/17) 8:31 AM EST (1/17)
Length of Visible Light 10h 33m
Length of Day
9h 32m
Full, 98% of the Moon is Illuminated
Jan 17
Full
Jan 24
Last Quarter
Jan 30
New
Feb 6
First Quarter
Feb 14
Full

Hourly Weather History & Observations

Time (EST) Temp. Windchill Dew Point Humidity Pressure Visibility Wind Dir Wind Speed Gust Speed Precip Events Conditions
12:15 AM 26.6 °F 16.8 °F 24.8 °F 93% 29.62 in 10.0 mi WSW 10.4 mph 17.3 mph N/A   Overcast
12:35 AM 26.6 °F 16.8 °F 21.2 °F 80% 29.62 in 10.0 mi SW 10.4 mph - N/A   Overcast
12:55 AM 26.6 °F 15.2 °F 21.2 °F 80% 29.63 in 10.0 mi West 13.8 mph - N/A Snow Light Snow
1:15 AM 26.6 °F 15.7 °F 19.4 °F 74% 29.63 in 10.0 mi West 12.7 mph 19.6 mph N/A   Overcast
1:35 AM 24.8 °F 15.3 °F 19.4 °F 80% 29.63 in 10.0 mi West 9.2 mph - N/A   Overcast
1:55 AM 24.8 °F 15.3 °F 17.6 °F 74% 29.64 in 10.0 mi West 9.2 mph - N/A   Mostly Cloudy
2:15 AM 24.8 °F 17.9 °F 17.6 °F 74% 29.65 in 10.0 mi WSW 5.8 mph - N/A   Clear
2:35 AM 21.2 °F 12.6 °F 17.6 °F 86% 29.66 in 10.0 mi SW 6.9 mph - N/A   Clear
2:55 AM 21.2 °F 12.6 °F 17.6 °F 86% 29.66 in 10.0 mi SW 6.9 mph - N/A   Clear
3:15 AM 21.2 °F 12.6 °F 15.8 °F 80% 29.67 in 10.0 mi SW 6.9 mph - N/A   Scattered Clouds
3:35 AM 21.2 °F 12.6 °F 15.8 °F 80% 29.68 in 10.0 mi SW 6.9 mph - N/A   Scattered Clouds
3:55 AM 21.2 °F 10.9 °F 15.8 °F 80% 29.68 in 10.0 mi WSW 9.2 mph - N/A   Mostly Cloudy
4:15 AM 21.2 °F 12.6 °F 15.8 °F 80% 29.69 in 10.0 mi SW 6.9 mph - N/A   Overcast
4:35 AM 21.2 °F 13.6 °F 15.8 °F 80% 29.69 in 10.0 mi SW 5.8 mph - N/A   Overcast
4:55 AM 21.2 °F 13.6 °F 17.6 °F 86% 29.69 in 10.0 mi SSW 5.8 mph - N/A   Overcast
5:15 AM 21.2 °F 14.9 °F 15.8 °F 80% 29.70 in 10.0 mi SW 4.6 mph - N/A   Overcast
5:35 AM 21.2 °F 14.9 °F 17.6 °F 86% 29.70 in 10.0 mi SW 4.6 mph - N/A   Overcast
5:55 AM 21.2 °F - 15.8 °F 80% 29.70 in 10.0 mi Calm Calm - N/A   Overcast
6:15 AM 21.2 °F 16.4 °F 15.8 °F 80% 29.71 in 10.0 mi SW 3.5 mph - N/A   Overcast
6:35 AM 21.2 °F 16.4 °F 15.8 °F 80% 29.71 in 10.0 mi WSW 3.5 mph - N/A   Overcast
6:55 AM 21.2 °F 16.4 °F 15.8 °F 80% 29.72 in 10.0 mi WSW 3.5 mph - N/A   Overcast
7:15 AM 21.2 °F - 15.8 °F 80% 29.72 in 10.0 mi Calm Calm - N/A   Overcast
7:35 AM 21.2 °F - 17.6 °F 86% 29.72 in 10.0 mi Calm Calm - N/A Snow Light Snow
7:55 AM 21.2 °F 16.4 °F 17.6 °F 86% 29.73 in 5.0 mi WSW 3.5 mph - N/A Snow Light Snow
8:15 AM 21.2 °F 16.4 °F 17.6 °F 86% 29.73 in 7.0 mi West 3.5 mph - N/A Snow Light Snow
8:34 AM 21.2 °F 13.6 °F 17.6 °F 86% 29.74 in 7.0 mi West 5.8 mph - N/A Snow Light Snow
8:55 AM 21.2 °F 14.9 °F 17.6 °F 86% 29.75 in 10.0 mi West 4.6 mph - N/A Snow Light Snow
9:15 AM 21.2 °F 13.6 °F 17.6 °F 86% 29.76 in 10.0 mi West 5.8 mph - N/A Snow Light Snow
9:34 AM 21.2 °F 12.6 °F 17.6 °F 86% 29.76 in 10.0 mi West 6.9 mph - N/A Snow Light Snow
9:55 AM 21.2 °F 12.6 °F 19.4 °F 93% 29.77 in 7.0 mi West 6.9 mph - N/A Snow Light Snow
10:15 AM 21.2 °F 12.6 °F 19.4 °F 93% 29.77 in 7.0 mi WSW 6.9 mph - N/A Snow Light Snow
10:34 AM 21.2 °F 12.6 °F 19.4 °F 93% 29.78 in 10.0 mi WSW 6.9 mph - N/A Snow Light Snow
10:55 AM 21.2 °F 11.7 °F 17.6 °F 86% 29.78 in 10.0 mi West 8.1 mph - N/A Snow Light Snow
11:15 AM 21.2 °F 12.6 °F 17.6 °F 86% 29.78 in 10.0 mi West 6.9 mph - N/A Snow Light Snow
11:34 AM 21.2 °F 12.6 °F 17.6 °F 86% 29.79 in 7.0 mi West 6.9 mph - N/A Snow Light Snow
11:55 AM 21.2 °F 12.6 °F 17.6 °F 86% 29.79 in 10.0 mi West 6.9 mph - N/A Snow Light Snow
12:14 PM 21.2 °F 10.1 °F 15.8 °F 80% 29.79 in 7.0 mi West 10.4 mph - N/A Snow Light Snow
12:35 PM 21.2 °F 10.1 °F 15.8 °F 80% 29.79 in 5.0 mi WSW 10.4 mph - N/A Snow Light Snow
12:55 PM 21.2 °F 10.1 °F 15.8 °F 80% 29.78 in 5.0 mi West 10.4 mph - N/A Snow Light Snow
1:14 PM 21.2 °F 10.1 °F 15.8 °F 80% 29.78 in 5.0 mi West 10.4 mph - N/A Snow Light Snow
1:35 PM 19.4 °F 8.6 °F 15.8 °F 86% 29.78 in 5.0 mi West 9.2 mph - N/A Snow Light Snow
1:55 PM 19.4 °F 7.9 °F 15.8 °F 86% 29.78 in 5.0 mi West 10.4 mph - N/A Snow Light Snow
2:14 PM 19.4 °F 7.2 °F 15.8 °F 86% 29.79 in 7.0 mi WSW 11.5 mph - N/A Snow Light Snow
2:35 PM 19.4 °F 8.6 °F 15.8 °F 86% 29.79 in 7.0 mi West 9.2 mph - N/A Snow Light Snow
2:55 PM 19.4 °F 9.5 °F 15.8 °F 86% 29.80 in 7.0 mi West 8.1 mph - N/A Snow Light Snow
3:14 PM 19.4 °F 7.2 °F 14.0 °F 80% 29.81 in 4.0 mi West 11.5 mph - N/A Snow Light Snow
3:35 PM 19.4 °F 7.2 °F 14.0 °F 80% 29.82 in 2.5 mi West 11.5 mph 16.1 mph N/A Snow Light Snow
3:54 PM 17.6 °F 6.4 °F 15.8 °F 93% 29.84 in 2.0 mi WSW 9.2 mph - N/A Snow Light Snow
4:15 PM 17.6 °F 5.7 °F 14.0 °F 86% 29.85 in 1.8 mi WSW 10.4 mph - N/A Snow Light Snow
4:35 PM 17.6 °F 5.7 °F 14.0 °F 86% 29.85 in 1.2 mi West 10.4 mph - N/A Snow Light Snow
4:54 PM 15.8 °F 3.4 °F 12.2 °F 86% 29.86 in 1.0 mi West 10.4 mph - N/A Snow Light Snow
5:15 PM 15.8 °F 5.1 °F 12.2 °F 86% 29.87 in 1.8 mi WSW 8.1 mph - N/A Snow Light Snow
5:35 PM 14.0 °F 0.5 °F 10.4 °F 86% 29.88 in 3.0 mi SW 11.5 mph - N/A Snow Light Snow
5:54 PM 14.0 °F 1.2 °F 10.4 °F 86% 29.89 in 5.0 mi SW 10.4 mph - N/A Snow Light Snow
6:15 PM 12.2 °F -1.0 °F 8.6 °F 85% 29.90 in 10.0 mi SW 10.4 mph - N/A   Overcast
6:35 PM 12.2 °F -0.2 °F 6.8 °F 79% 29.91 in 10.0 mi WSW 9.2 mph - N/A   Overcast
6:54 PM 10.4 °F -2.4 °F 6.8 °F 85% 29.92 in 10.0 mi WSW 9.2 mph - N/A Snow Light Snow
7:15 PM 10.4 °F -2.4 °F 6.8 °F 85% 29.92 in 10.0 mi WSW 9.2 mph - N/A   Overcast
7:35 PM 10.4 °F -3.3 °F 6.8 °F 85% 29.92 in 10.0 mi WSW 10.4 mph - N/A   Overcast
7:54 PM 12.2 °F -1.8 °F 6.8 °F 79% 29.92 in 10.0 mi WSW 11.5 mph - N/A   Overcast
8:15 PM 10.4 °F -3.3 °F 5.0 °F 79% 29.92 in 10.0 mi WSW 10.4 mph - N/A   Overcast
8:35 PM 10.4 °F -0.4 °F 5.0 °F 79% 29.92 in 10.0 mi WSW 6.9 mph - N/A   Mostly Cloudy
8:54 PM 8.6 °F -2.6 °F 3.2 °F 79% 29.92 in 10.0 mi SW 6.9 mph - N/A   Scattered Clouds
9:15 PM 6.8 °F -4.8 °F 3.2 °F 85% 29.93 in 10.0 mi SW 6.9 mph - N/A   Clear
9:35 PM 10.4 °F 0.8 °F 6.8 °F 85% 29.93 in 10.0 mi SSW 5.8 mph - N/A   Mostly Cloudy
9:54 PM 10.4 °F -2.4 °F 6.8 °F 85% 29.93 in 7.0 mi SSW 9.2 mph - N/A Snow Light Snow
10:15 PM 10.4 °F -2.4 °F 6.8 °F 85% 29.93 in 10.0 mi SW 9.2 mph - N/A Snow Light Snow
10:35 PM 10.4 °F -2.4 °F 6.8 °F 85% 29.93 in 10.0 mi SSW 9.2 mph - N/A Snow Light Snow
10:54 PM 10.4 °F -2.4 °F 8.6 °F 92% 29.93 in 10.0 mi SW 9.2 mph - N/A Snow Light Snow
11:15 PM 10.4 °F -1.5 °F 8.6 °F 92% 29.92 in 7.0 mi SW 8.1 mph - N/A Snow Light Snow
11:35 PM 10.4 °F -1.5 °F 8.6 °F 92% 29.92 in 5.0 mi SSW 8.1 mph - N/A Snow Light Snow
11:54 PM 12.2 °F -1.0 °F 8.6 °F 85% 29.91 in 5.0 mi SW 10.4 mph - N/A Snow Light Snow